owner,sensor,date,latitude,longitude,vertical_datum,wind_speed,wind_to_direction,wind_speed_of_gust,qcFlag 
COMPS,ioos:station:USF.COMPS:BGC:1,2016-04-01T00:00:00Z,26.4040,-81.8810,10.0,2.79,177.86,3.33,'1111122,1111122,1111122' 
COMPS,ioos:station:USF.COMPS:BGC:1,2016-04-01T00:06:00Z,26.4040,-81.8810,10.0,2.44,176.15,3.23,'1111122,1111122,1111122' 
COMPS,ioos:station:USF.COMPS:BGC:1,2016-04-01T00:12:00Z,26.4040,-81.8810,10.0,2.46,172.01,3.13,'1111122,1111122,1111122' 
COMPS,ioos:station:USF.COMPS:BGC:1,2016-04-01T00:18:00Z,26.4040,-81.8810,10.0,2.27,170.77,2.74,'1111122,1111122,1111122' 
COMPS,ioos:station:USF.COMPS:BGC:1,2016-04-01T00:24:00Z,26.4040,-81.8810,10.0,2.42,174.36,2.94,'1111122,1111122,1111122' 
COMPS,ioos:station:USF.COMPS:BGC:1,2016-04-01T00:30:00Z,26.4040,-81.8810,10.0,2.32,174.12,2.94,'1111122,1111122,1111122' 
COMPS,ioos:station:USF.COMPS:BGC:1,2016-04-01T00:36:00Z,26.4040,-81.8810,10.0,2.58,173.36,3.52,'1111122,1111122,1111122' 
COMPS,ioos:station:USF.COMPS:BGC:1,2016-04-01T00:42:00Z,26.4040,-81.8810,10.0,2.75,175.31,3.43,'1111122,1111122,1111122' 
COMPS,ioos:station:USF.COMPS:BGC:1,2016-04-01T00:48:00Z,26.4040,-81.8810,10.0,2.64,179.63,3.23,'1111122,1111122,1111122' 
COMPS,ioos:station:USF.COMPS:BGC:1,2016-04-01T00:54:00Z,26.4040,-81.8810,10.0,2.54,178.61,3.43,'1111122,1111122,1111122' 
COMPS,ioos:station:USF.COMPS:BGC:1,2016-04-01T01:00:00Z,26.4040,-81.8810,10.0,2.67,185.16,3.62,'1111122,1111122,1111122' 
COMPS,ioos:station:USF.COMPS:BGC:1,2016-04-01T01:06:00Z,26.4040,-81.8810,10.0,2.89,183.02,3.52,'1111122,1111122,1111122' 
COMPS,ioos:station:USF.COMPS:BGC:1,2016-04-01T01:12:00Z,26.4040,-81.8810,10.0,2.8,183.45,3.33,'1111122,1111122,1111122' 
COMPS,ioos:station:USF.COMPS:BGC:1,2016-04-01T01:18:00Z,26.4040,-81.8810,10.0,3.1,182.02,3.82,'1111122,1111122,1111122' 
COMPS,ioos:station:USF.COMPS:BGC:1,2016-04-01T01:24:00Z,26.4040,-81.8810,10.0,3.03,180.92,3.72,'1111122,1111122,1111122' 
COMPS,ioos:station:USF.COMPS:BGC:1,2016-04-01T01:30:00Z,26.4040,-81.8810,10.0,2.66,179.3,3.43,'1111122,1111122,1111122' 
COMPS,ioos:station:USF.COMPS:BGC:1,2016-04-01T01:36:00Z,26.4040,-81.8810,10.0,2.91,184.32,4.11,'1111122,1111122,1111122' 
COMPS,ioos:station:USF.COMPS:BGC:1,2016-04-01T01:42:00Z,26.4040,-81.8810,10.0,3.02,179.74,4.11,'1111122,1111122,1111122' 
COMPS,ioos:station:USF.COMPS:BGC:1,2016-04-01T01:48:00Z,26.4040,-81.8810,10.0,2.84,180.81,4.11,'1111122,1111122,1111122' 
COMPS,ioos:station:USF.COMPS:BGC:1,2016-04-01T01:54:00Z,26.4040,-81.8810,10.0,2.99,175.63,3.92,'1111122,1111122,1111122' 
COMPS,ioos:station:USF.COMPS:BGC:1,2016-04-01T02:00:00Z,26.4040,-81.8810,10.0,3.08,171.83,3.62,'1111122,1111122,1111122' 
COMPS,ioos:station:USF.COMPS:BGC:1,2016-04-01T02:06:00Z,26.4040,-81.8810,10.0,3.08,171.68,3.82,'1111122,1111122,1111122' 
COMPS,ioos:station:USF.COMPS:BGC:1,2016-04-01T02:12:00Z,26.4040,-81.8810,10.0,3.15,170.74,3.82,'1111122,1111122,1111122' 
COMPS,ioos:station:USF.COMPS:BGC:1,2016-04-01T02:18:00Z,26.4040,-81.8810,10.0,2.99,169.05,3.62,'1111122,1111122,1111122' 
COMPS,ioos:station:USF.COMPS:BGC:1,2016-04-01T02:24:00Z,26.4040,-81.8810,10.0,3.34,168.26,3.92,'1111122,1111122,1111122' 
COMPS,ioos:station:USF.COMPS:BGC:1,2016-04-01T02:30:00Z,26.4040,-81.8810,10.0,3.14,170.73,3.62,'1111122,1111122,1111122' 
COMPS,ioos:station:USF.COMPS:BGC:1,2016-04-01T02:36:00Z,26.4040,-81.8810,10.0,2.97,171.53,3.43,'1111122,1111122,1111122' 
COMPS,ioos:station:USF.COMPS:BGC:1,2016-04-01T02:42:00Z,26.4040,-81.8810,10.0,2.85,171.31,3.43,'1111122,1111122,1111122' 
COMPS,ioos:station:USF.COMPS:BGC:1,2016-04-01T02:48:00Z,26.4040,-81.8810,10.0,2.79,169.23,3.33,'1111122,1111122,1111122' 
COMPS,ioos:station:USF.COMPS:BGC:1,2016-04-01T02:54:00Z,26.4040,-81.8810,10.0,2.49,167.39,3.23,'1111122,1111122,1111122' 
COMPS,ioos:station:USF.COMPS:BGC:1,2016-04-01T03:00:00Z,26.4040,-81.8810,10.0,1.89,159.47,2.84,'1111122,1111122,1111122' 
COMPS,ioos:station:USF.COMPS:BGC:1,2016-04-01T03:06:00Z,26.4040,-81.8810,10.0,1.74,153.53,2.45,'1111122,1111122,1111122' 
COMPS,ioos:station:USF.COMPS:BGC:1,2016-04-01T03:12:00Z,26.4040,-81.8810,10.0,1.79,156.49,2.54,'1111122,1111122,1111122' 
COMPS,ioos:station:USF.COMPS:BGC:1,2016-04-01T03:18:00Z,26.4040,-81.8810,10.0,1.62,157.47,2.05,'1111122,1111122,1111122' 
COMPS,ioos:station:USF.COMPS:BGC:1,2016-04-01T03:24:00Z,26.4040,-81.8810,10.0,1.7,138.91,2.35,'1111122,1111122,1111122' 
COMPS,ioos:station:USF.COMPS:BGC:1,2016-04-01T03:30:00Z,26.4040,-81.8810,10.0,2.03,146.17,2.94,'1111122,1111122,1111122' 
COMPS,ioos:station:USF.COMPS:BGC:1,2016-04-01T03:36:00Z,26.4040,-81.8810,10.0,2.28,152.08,2.74,'1111122,1111122,1111122' 
COMPS,ioos:station:USF.COMPS:BGC:1,2016-04-01T03:42:00Z,26.4040,-81.8810,10.0,2.34,153.67,2.84,'1111122,1111122,1111122' 
COMPS,ioos:station:USF.COMPS:BGC:1,2016-04-01T03:48:00Z,26.4040,-81.8810,10.0,2.2,152.45,3.03,'1111122,1111122,1111122' 
COMPS,ioos:station:USF.COMPS:BGC:1,2016-04-01T03:54:00Z,26.4040,-81.8810,10.0,2.34,143.43,3.43,'1111122,1111122,1111122' 
COMPS,ioos:station:USF.COMPS:BGC:1,2016-04-01T04:00:00Z,26.4040,-81.8810,10.0,2.4,136.86,3.03,'1111122,1111122,1111122' 
COMPS,ioos:station:USF.COMPS:BGC:1,2016-04-01T04:06:00Z,26.4040,-81.8810,10.0,2.29,143.33,2.94,'1111122,1111122,1111122' 
COMPS,ioos:station:USF.COMPS:BGC:1,2016-04-01T04:12:00Z,26.4040,-81.8810,10.0,2.5,150.6,3.23,'1111122,1111122,1111122' 
COMPS,ioos:station:USF.COMPS:BGC:1,2016-04-01T04:18:00Z,26.4040,-81.8810,10.0,2.61,149.83,3.43,'1111122,1111122,1111122' 
COMPS,ioos:station:USF.COMPS:BGC:1,2016-04-01T04:24:00Z,26.4040,-81.8810,10.0,2.23,151.3,2.84,'1111122,1111122,1111122' 
COMPS,ioos:station:USF.COMPS:BGC:1,2016-04-01T04:30:00Z,26.4040,-81.8810,10.0,2.19,152.59,2.74,'1111122,1111122,1111122' 
COMPS,ioos:station:USF.COMPS:BGC:1,2016-04-01T04:36:00Z,26.4040,-81.8810,10.0,2.28,146.96,2.84,'1111122,1111122,1111122' 
COMPS,ioos:station:USF.COMPS:BGC:1,2016-04-01T04:42:00Z,26.4040,-81.8810,10.0,2.19,147.08,2.94,'1111122,1111122,1111122' 
COMPS,ioos:station:USF.COMPS:BGC:1,2016-04-01T04:48:00Z,26.4040,-81.8810,10.0,2.36,156.45,3.13,'1111122,1111122,1111122' 
COMPS,ioos:station:USF.COMPS:BGC:1,2016-04-01T04:54:00Z,26.4040,-81.8810,10.0,2.36,160.36,3.23,'1111122,1111122,1111122' 
COMPS,ioos:station:USF.COMPS:BGC:1,2016-04-01T05:00:00Z,26.4040,-81.8810,10.0,2.55,155.57,3.43,'1111122,1111122,1111122' 
COMPS,ioos:station:USF.COMPS:BGC:1,2016-04-01T05:06:00Z,26.4040,-81.8810,10.0,2.1,157.89,3.23,'1111122,1111122,1111122' 
COMPS,ioos:station:USF.COMPS:BGC:1,2016-04-01T05:12:00Z,26.4040,-81.8810,10.0,2.3,155.83,3.23,'1111122,1111122,1111122' 
COMPS,ioos:station:USF.COMPS:BGC:1,2016-04-01T05:18:00Z,26.4040,-81.8810,10.0,2.03,145.76,2.84,'1111122,1111122,1111122' 
COMPS,ioos:station:USF.COMPS:BGC:1,2016-04-01T05:24:00Z,26.4040,-81.8810,10.0,1.85,137.56,2.64,'1111122,1111122,1111122' 
COMPS,ioos:station:USF.COMPS:BGC:1,2016-04-01T05:30:00Z,26.4040,-81.8810,10.0,2.06,134.86,2.84,'1111122,1111122,1111122' 
COMPS,ioos:station:USF.COMPS:BGC:1,2016-04-01T05:36:00Z,26.4040,-81.8810,10.0,2.24,139.99,2.94,'1111122,1111122,1111122' 
COMPS,ioos:station:USF.COMPS:BGC:1,2016-04-01T05:42:00Z,26.4040,-81.8810,10.0,2.19,146.66,3.13,'1111122,1111122,1111122' 
COMPS,ioos:station:USF.COMPS:BGC:1,2016-04-01T05:48:00Z,26.4040,-81.8810,10.0,2.23,137.87,3.03,'1111122,1111122,1111122' 
COMPS,ioos:station:USF.COMPS:BGC:1,2016-04-01T05:54:00Z,26.4040,-81.8810,10.0,2.5,139.14,3.33,'1111122,1111122,1111122' 
COMPS,ioos:station:USF.COMPS:BGC:1,2016-04-01T06:00:00Z,26.4040,-81.8810,10.0,2.02,142.2,2.54,'1111122,1111122,1111122' 
COMPS,ioos:station:USF.COMPS:BGC:1,2016-04-01T06:06:00Z,26.4040,-81.8810,10.0,2.19,141.62,2.84,'1111122,1111122,1111122' 
COMPS,ioos:station:USF.COMPS:BGC:1,2016-04-01T06:12:00Z,26.4040,-81.8810,10.0,2.4,140.57,3.23,'1111122,1111122,1111122' 
COMPS,ioos:station:USF.COMPS:BGC:1,2016-04-01T06:18:00Z,26.4040,-81.8810,10.0,2.43,141.81,3.33,'1111122,1111122,1111122' 
COMPS,ioos:station:USF.COMPS:BGC:1,2016-04-01T06:24:00Z,26.4040,-81.8810,10.0,2.91,138.65,4.01,'1111122,1111122,1111122' 
COMPS,ioos:station:USF.COMPS:BGC:1,2016-04-01T06:30:00Z,26.4040,-81.8810,10.0,2.83,138.0,4.31,'1111122,1111122,1111122' 
COMPS,ioos:station:USF.COMPS:BGC:1,2016-04-01T06:36:00Z,26.4040,-81.8810,10.0,3.16,140.16,4.6,'1111122,1111122,1111122' 
COMPS,ioos:station:USF.COMPS:BGC:1,2016-04-01T06:42:00Z,26.4040,-81.8810,10.0,3.41,137.61,5.29,'1111122,1111122,1111122' 
COMPS,ioos:station:USF.COMPS:BGC:1,2016-04-01T06:48:00Z,26.4040,-81.8810,10.0,3.07,139.46,4.31,'1111122,1111122,1111122' 
COMPS,ioos:station:USF.COMPS:BGC:1,2016-04-01T06:54:00Z,26.4040,-81.8810,10.0,3.19,138.54,4.5,'1111122,1111122,1111122' 
COMPS,ioos:station:USF.COMPS:BGC:1,2016-04-01T07:00:00Z,26.4040,-81.8810,10.0,2.9,139.23,4.11,'1111122,1111122,1111122' 
COMPS,ioos:station:USF.COMPS:BGC:1,2016-04-01T07:06:00Z,26.4040,-81.8810,10.0,3.04,143.63,4.7,'1111122,1111122,1111122' 
COMPS,ioos:station:USF.COMPS:BGC:1,2016-04-01T07:12:00Z,26.4040,-81.8810,10.0,2.96,135.94,3.92,'1111122,1111122,1111122' 
COMPS,ioos:station:USF.COMPS:BGC:1,2016-04-01T07:18:00Z,26.4040,-81.8810,10.0,3.47,131.77,4.9,'1111122,1111122,1111122' 
COMPS,ioos:station:USF.COMPS:BGC:1,2016-04-01T07:24:00Z,26.4040,-81.8810,10.0,3.04,129.84,4.5,'1111122,1111122,1111122' 
COMPS,ioos:station:USF.COMPS:BGC:1,2016-04-01T07:30:00Z,26.4040,-81.8810,10.0,3.23,122.33,4.7,'1111122,1111122,1111122' 
COMPS,ioos:station:USF.COMPS:BGC:1,2016-04-01T07:36:00Z,26.4040,-81.8810,10.0,2.96,121.42,3.92,'1111122,1111122,1111122' 
COMPS,ioos:station:USF.COMPS:BGC:1,2016-04-01T07:42:00Z,26.4040,-81.8810,10.0,3.07,123.0,3.82,'1111122,1111122,1111122' 
COMPS,ioos:station:USF.COMPS:BGC:1,2016-04-01T07:48:00Z,26.4040,-81.8810,10.0,3.17,126.58,3.92,'1111122,1111122,1111122' 
COMPS,ioos:station:USF.COMPS:BGC:1,2016-04-01T07:54:00Z,26.4040,-81.8810,10.0,3.07,128.07,4.31,'1111122,1111122,1111122' 
COMPS,ioos:station:USF.COMPS:BGC:1,2016-04-01T08:00:00Z,26.4040,-81.8810,10.0,2.67,130.08,3.43,'1111122,1111122,1111122' 
COMPS,ioos:station:USF.COMPS:BGC:1,2016-04-01T08:06:00Z,26.4040,-81.8810,10.0,2.4,131.43,3.43,'1111122,1111122,1111122' 
COMPS,ioos:station:USF.COMPS:BGC:1,2016-04-01T08:12:00Z,26.4040,-81.8810,10.0,2.91,133.06,4.31,'1111122,1111122,1111122' 
COMPS,ioos:station:USF.COMPS:BGC:1,2016-04-01T08:18:00Z,26.4040,-81.8810,10.0,2.56,131.69,3.52,'1111122,1111122,1111122' 
COMPS,ioos:station:USF.COMPS:BGC:1,2016-04-01T08:24:00Z,26.4040,-81.8810,10.0,2.74,134.06,3.62,'1111122,1111122,1111122' 
COMPS,ioos:station:USF.COMPS:BGC:1,2016-04-01T08:30:00Z,26.4040,-81.8810,10.0,2.72,138.81,3.43,'1111122,1111122,1111122' 
COMPS,ioos:station:USF.COMPS:BGC:1,2016-04-01T08:36:00Z,26.4040,-81.8810,10.0,2.52,138.84,3.33,'1111122,1111122,1111122' 
COMPS,ioos:station:USF.COMPS:BGC:1,2016-04-01T08:42:00Z,26.4040,-81.8810,10.0,2.52,135.08,3.52,'1111122,1111122,1111122' 
COMPS,ioos:station:USF.COMPS:BGC:1,2016-04-01T08:48:00Z,26.4040,-81.8810,10.0,2.9,136.74,4.31,'1111122,1111122,1111122' 
COMPS,ioos:station:USF.COMPS:BGC:1,2016-04-01T08:54:00Z,26.4040,-81.8810,10.0,2.73,135.62,3.82,'1111122,1111122,1111122' 
COMPS,ioos:station:USF.COMPS:BGC:1,2016-04-01T09:00:00Z,26.4040,-81.8810,10.0,2.64,130.29,3.62,'1111122,1111122,1111122' 
COMPS,ioos:station:USF.COMPS:BGC:1,2016-04-01T09:06:00Z,26.4040,-81.8810,10.0,2.8,134.61,3.82,'1111122,1111122,1111122' 
COMPS,ioos:station:USF.COMPS:BGC:1,2016-04-01T09:12:00Z,26.4040,-81.8810,10.0,2.64,129.47,3.52,'1111122,1111122,1111122' 
COMPS,ioos:station:USF.COMPS:BGC:1,2016-04-01T09:18:00Z,26.4040,-81.8810,10.0,2.77,125.17,3.43,'1111122,1111122,1111122' 
COMPS,ioos:station:USF.COMPS:BGC:1,2016-04-01T09:24:00Z,26.4040,-81.8810,10.0,3.14,127.43,4.21,'1111122,1111122,1111122' 
COMPS,ioos:station:USF.COMPS:BGC:1,2016-04-01T09:30:00Z,26.4040,-81.8810,10.0,3.18,131.22,3.82,'1111122,1111122,1111122' 
COMPS,ioos:station:USF.COMPS:BGC:1,2016-04-01T09:36:00Z,26.4040,-81.8810,10.0,2.95,132.39,3.92,'1111122,1111122,1111122' 
COMPS,ioos:station:USF.COMPS:BGC:1,2016-04-01T09:42:00Z,26.4040,-81.8810,10.0,2.69,127.54,3.62,'1111122,1111122,1111122' 
COMPS,ioos:station:USF.COMPS:BGC:1,2016-04-01T09:48:00Z,26.4040,-81.8810,10.0,2.85,123.91,3.82,'1111122,1111122,1111122' 
COMPS,ioos:station:USF.COMPS:BGC:1,2016-04-01T09:54:00Z,26.4040,-81.8810,10.0,2.93,117.79,4.01,'1111122,1111122,1111122' 
COMPS,ioos:station:USF.COMPS:BGC:1,2016-04-01T10:00:00Z,26.4040,-81.8810,10.0,2.94,115.62,4.01,'1111122,1111122,1111122' 
COMPS,ioos:station:USF.COMPS:BGC:1,2016-04-01T10:06:00Z,26.4040,-81.8810,10.0,3.25,120.57,4.21,'1111122,1111122,1111122' 
COMPS,ioos:station:USF.COMPS:BGC:1,2016-04-01T10:12:00Z,26.4040,-81.8810,10.0,3.52,123.32,4.9,'1111122,1111122,1111122' 
COMPS,ioos:station:USF.COMPS:BGC:1,2016-04-01T10:18:00Z,26.4040,-81.8810,10.0,3.57,121.72,4.99,'1111122,1111122,1111122' 
COMPS,ioos:station:USF.COMPS:BGC:1,2016-04-01T10:24:00Z,26.4040,-81.8810,10.0,3.39,116.56,4.31,'1111122,1111122,1111122' 
COMPS,ioos:station:USF.COMPS:BGC:1,2016-04-01T10:30:00Z,26.4040,-81.8810,10.0,3.37,114.18,4.7,'1111122,1111122,1111122' 
COMPS,ioos:station:USF.COMPS:BGC:1,2016-04-01T10:36:00Z,26.4040,-81.8810,10.0,3.99,114.57,5.39,'1111122,1111122,1111122' 
COMPS,ioos:station:USF.COMPS:BGC:1,2016-04-01T10:42:00Z,26.4040,-81.8810,10.0,3.48,113.34,4.9,'1111122,1111122,1111122' 
COMPS,ioos:station:USF.COMPS:BGC:1,2016-04-01T10:48:00Z,26.4040,-81.8810,10.0,2.91,116.75,3.72,'1111122,1111122,1111122' 
COMPS,ioos:station:USF.COMPS:BGC:1,2016-04-01T10:54:00Z,26.4040,-81.8810,10.0,3.2,120.24,4.21,'1111122,1111122,1111122' 
COMPS,ioos:station:USF.COMPS:BGC:1,2016-04-01T11:00:00Z,26.4040,-81.8810,10.0,2.98,129.34,4.41,'1111122,1111122,1111122' 
COMPS,ioos:station:USF.COMPS:BGC:1,2016-04-01T11:06:00Z,26.4040,-81.8810,10.0,2.53,121.52,3.82,'1111122,1111122,1111122' 
COMPS,ioos:station:USF.COMPS:BGC:1,2016-04-01T11:12:00Z,26.4040,-81.8810,10.0,2.61,121.76,3.72,'1111122,1111122,1111122' 
COMPS,ioos:station:USF.COMPS:BGC:1,2016-04-01T11:18:00Z,26.4040,-81.8810,10.0,2.8,124.51,3.82,'1111122,1111122,1111122' 
COMPS,ioos:station:USF.COMPS:BGC:1,2016-04-01T11:24:00Z,26.4040,-81.8810,10.0,2.76,119.32,4.11,'1111122,1111122,1111122' 
COMPS,ioos:station:USF.COMPS:BGC:1,2016-04-01T11:30:00Z,26.4040,-81.8810,10.0,3.04,121.11,4.11,'1111122,1111122,1111122' 
COMPS,ioos:station:USF.COMPS:BGC:1,2016-04-01T11:36:00Z,26.4040,-81.8810,10.0,2.47,116.99,3.62,'1111122,1111122,1111122' 
COMPS,ioos:station:USF.COMPS:BGC:1,2016-04-01T11:42:00Z,26.4040,-81.8810,10.0,2.8,119.03,3.62,'1111122,1111122,1111122' 
COMPS,ioos:station:USF.COMPS:BGC:1,2016-04-01T11:48:00Z,26.4040,-81.8810,10.0,2.73,114.62,3.52,'1111122,1111122,1111122' 
COMPS,ioos:station:USF.COMPS:BGC:1,2016-04-01T11:54:00Z,26.4040,-81.8810,10.0,3.08,112.19,4.01,'1111122,1111122,1111122' 
COMPS,ioos:station:USF.COMPS:BGC:1,2016-04-01T12:00:00Z,26.4040,-81.8810,10.0,2.48,118.53,3.33,'1111122,1111122,1111122' 
COMPS,ioos:station:USF.COMPS:BGC:1,2016-04-01T12:06:00Z,26.4040,-81.8810,10.0,2.94,122.72,3.72,'1111122,1111122,1111122' 
COMPS,ioos:station:USF.COMPS:BGC:1,2016-04-01T12:12:00Z,26.4040,-81.8810,10.0,2.89,119.29,4.11,'1111122,1111122,1111122' 
COMPS,ioos:station:USF.COMPS:BGC:1,2016-04-01T12:18:00Z,26.4040,-81.8810,10.0,2.57,114.16,3.62,'1111122,1111122,1111122' 
COMPS,ioos:station:USF.COMPS:BGC:1,2016-04-01T12:24:00Z,26.4040,-81.8810,10.0,2.89,113.48,3.52,'1111122,1111122,1111122' 
COMPS,ioos:station:USF.COMPS:BGC:1,2016-04-01T12:30:00Z,26.4040,-81.8810,10.0,2.63,122.92,4.11,'1111122,1111122,1111122' 
COMPS,ioos:station:USF.COMPS:BGC:1,2016-04-01T12:36:00Z,26.4040,-81.8810,10.0,3.26,124.26,4.31,'1111122,1111122,1111122' 
COMPS,ioos:station:USF.COMPS:BGC:1,2016-04-01T12:42:00Z,26.4040,-81.8810,10.0,3.37,132.36,4.31,'1111122,1111122,1111122' 
COMPS,ioos:station:USF.COMPS:BGC:1,2016-04-01T12:48:00Z,26.4040,-81.8810,10.0,3.21,133.67,4.31,'1111122,1111122,1111122' 
COMPS,ioos:station:USF.COMPS:BGC:1,2016-04-01T12:54:00Z,26.4040,-81.8810,10.0,3.16,125.23,4.01,'1111122,1111122,1111122' 
COMPS,ioos:station:USF.COMPS:BGC:1,2016-04-01T13:00:00Z,26.4040,-81.8810,10.0,3.1,137.51,4.5,'1111122,1111122,1111122' 
COMPS,ioos:station:USF.COMPS:BGC:1,2016-04-01T13:06:00Z,26.4040,-81.8810,10.0,3.72,131.62,5.48,'1111122,1111122,1111122' 
COMPS,ioos:station:USF.COMPS:BGC:1,2016-04-01T13:12:00Z,26.4040,-81.8810,10.0,4.36,134.86,5.78,'1111122,1111122,1111122' 
COMPS,ioos:station:USF.COMPS:BGC:1,2016-04-01T13:18:00Z,26.4040,-81.8810,10.0,4.89,135.75,6.86,'1111122,1111122,1111122' 
COMPS,ioos:station:USF.COMPS:BGC:1,2016-04-01T13:24:00Z,26.4040,-81.8810,10.0,4.59,144.07,6.27,'1111122,1111122,1111122' 
COMPS,ioos:station:USF.COMPS:BGC:1,2016-04-01T13:30:00Z,26.4040,-81.8810,10.0,4.39,145.22,6.07,'1111122,1111122,1111122' 
COMPS,ioos:station:USF.COMPS:BGC:1,2016-04-01T13:36:00Z,26.4040,-81.8810,10.0,4.68,150.25,6.66,'1111122,1111122,1111122' 
COMPS,ioos:station:USF.COMPS:BGC:1,2016-04-01T13:42:00Z,26.4040,-81.8810,10.0,4.89,152.12,6.07,'1111122,1111122,1111122' 
COMPS,ioos:station:USF.COMPS:BGC:1,2016-04-01T13:48:00Z,26.4040,-81.8810,10.0,4.29,150.78,6.46,'1111122,1111122,1111122' 
COMPS,ioos:station:USF.COMPS:BGC:1,2016-04-01T13:54:00Z,26.4040,-81.8810,10.0,4.75,154.98,6.95,'1111122,1111122,1111122' 
COMPS,ioos:station:USF.COMPS:BGC:1,2016-04-01T14:00:00Z,26.4040,-81.8810,10.0,3.89,150.87,5.68,'1111122,1111122,1111122' 
COMPS,ioos:station:USF.COMPS:BGC:1,2016-04-01T14:06:00Z,26.4040,-81.8810,10.0,4.61,158.5,6.27,'1111122,1111122,1111122' 
COMPS,ioos:station:USF.COMPS:BGC:1,2016-04-01T14:12:00Z,26.4040,-81.8810,10.0,3.57,161.19,5.29,'1111122,1111122,1111122' 
COMPS,ioos:station:USF.COMPS:BGC:1,2016-04-01T14:18:00Z,26.4040,-81.8810,10.0,3.8,170.02,5.19,'1111122,1111122,1111122' 
COMPS,ioos:station:USF.COMPS:BGC:1,2016-04-01T14:24:00Z,26.4040,-81.8810,10.0,3.77,171.53,5.09,'1111122,1111122,1111122' 
COMPS,ioos:station:USF.COMPS:BGC:1,2016-04-01T14:30:00Z,26.4040,-81.8810,10.0,4.01,164.93,5.58,'1111122,1111122,1111122' 
COMPS,ioos:station:USF.COMPS:BGC:1,2016-04-01T14:36:00Z,26.4040,-81.8810,10.0,4.05,178.68,5.39,'1111122,1111122,1111122' 
COMPS,ioos:station:USF.COMPS:BGC:1,2016-04-01T14:42:00Z,26.4040,-81.8810,10.0,4.97,179.58,6.07,'1111122,1111122,1111122' 
COMPS,ioos:station:USF.COMPS:BGC:1,2016-04-01T14:48:00Z,26.4040,-81.8810,10.0,5.41,180.33,6.37,'1111122,1111122,1111122' 
COMPS,ioos:station:USF.COMPS:BGC:1,2016-04-01T14:54:00Z,26.4040,-81.8810,10.0,4.95,178.51,6.66,'1111122,1111122,1111122' 
COMPS,ioos:station:USF.COMPS:BGC:1,2016-04-01T15:00:00Z,26.4040,-81.8810,10.0,4.41,178.9,6.66,'1111122,1111122,1111122' 
COMPS,ioos:station:USF.COMPS:BGC:1,2016-04-01T15:06:00Z,26.4040,-81.8810,10.0,4.95,175.8,6.37,'1111122,1111122,1111122' 
COMPS,ioos:station:USF.COMPS:BGC:1,2016-04-01T15:12:00Z,26.4040,-81.8810,10.0,5.42,178.77,7.15,'1111122,1111122,1111122' 
COMPS,ioos:station:USF.COMPS:BGC:1,2016-04-01T15:18:00Z,26.4040,-81.8810,10.0,5.07,173.66,6.56,'1111122,1111122,1111122' 
COMPS,ioos:station:USF.COMPS:BGC:1,2016-04-01T15:24:00Z,26.4040,-81.8810,10.0,4.53,181.06,6.07,'1111122,1111122,1111122' 
COMPS,ioos:station:USF.COMPS:BGC:1,2016-04-01T15:30:00Z,26.4040,-81.8810,10.0,5.24,183.53,6.56,'1111122,1111122,1111122' 
COMPS,ioos:station:USF.COMPS:BGC:1,2016-04-01T15:36:00Z,26.4040,-81.8810,10.0,5.63,187.98,7.54,'1111122,1111122,1111122' 
COMPS,ioos:station:USF.COMPS:BGC:1,2016-04-01T15:42:00Z,26.4040,-81.8810,10.0,6.16,184.27,7.64,'1111122,1111122,1111122' 
COMPS,ioos:station:USF.COMPS:BGC:1,2016-04-01T15:48:00Z,26.4040,-81.8810,10.0,5.62,179.35,6.76,'1111122,1111122,1111122' 
COMPS,ioos:station:USF.COMPS:BGC:1,2016-04-01T15:54:00Z,26.4040,-81.8810,10.0,5.7,182.25,6.86,'1111122,1111122,1111122' 
COMPS,ioos:station:USF.COMPS:BGC:1,2016-04-01T16:00:00Z,26.4040,-81.8810,10.0,5.75,183.22,7.15,'1111122,1111122,1111122' 
COMPS,ioos:station:USF.COMPS:BGC:1,2016-04-01T16:06:00Z,26.4040,-81.8810,10.0,6.75,187.61,8.13,'1111122,1111122,1111122' 
COMPS,ioos:station:USF.COMPS:BGC:1,2016-04-01T16:12:00Z,26.4040,-81.8810,10.0,6.75,186.14,9.11,'1111122,1111122,1111122' 
COMPS,ioos:station:USF.COMPS:BGC:1,2016-04-01T16:18:00Z,26.4040,-81.8810,10.0,7.2,184.47,9.5,'1111122,1111122,1111122' 
COMPS,ioos:station:USF.COMPS:BGC:1,2016-04-01T16:24:00Z,26.4040,-81.8810,10.0,7.31,183.4,8.42,'1111122,1111122,1111122' 
COMPS,ioos:station:USF.COMPS:BGC:1,2016-04-01T16:30:00Z,26.4040,-81.8810,10.0,7.43,184.83,9.11,'1111122,1111122,1111122' 
COMPS,ioos:station:USF.COMPS:BGC:1,2016-04-01T16:36:00Z,26.4040,-81.8810,10.0,7.94,184.4,10.19,'1111122,1111122,1111122' 
COMPS,ioos:station:USF.COMPS:BGC:1,2016-04-01T16:42:00Z,26.4040,-81.8810,10.0,8.32,184.16,11.76,'1111122,1111122,1111122' 
COMPS,ioos:station:USF.COMPS:BGC:1,2016-04-01T16:48:00Z,26.4040,-81.8810,10.0,7.87,186.02,9.7,'1111122,1111122,1111122' 
COMPS,ioos:station:USF.COMPS:BGC:1,2016-04-01T16:54:00Z,26.4040,-81.8810,10.0,8.44,185.05,10.38,'1111122,1111122,1111122' 
COMPS,ioos:station:USF.COMPS:BGC:1,2016-04-01T17:00:00Z,26.4040,-81.8810,10.0,8.76,185.5,11.27,'1111122,1111122,1111122' 
COMPS,ioos:station:USF.COMPS:BGC:1,2016-04-01T17:06:00Z,26.4040,-81.8810,10.0,9.49,183.18,12.44,'1111122,1111122,1111122' 
COMPS,ioos:station:USF.COMPS:BGC:1,2016-04-01T17:12:00Z,26.4040,-81.8810,10.0,9.26,181.04,11.56,'1111122,1111122,1111122' 
COMPS,ioos:station:USF.COMPS:BGC:1,2016-04-01T17:18:00Z,26.4040,-81.8810,10.0,9.36,183.61,11.07,'1111122,1111122,1111122' 
COMPS,ioos:station:USF.COMPS:BGC:1,2016-04-01T17:24:00Z,26.4040,-81.8810,10.0,8.73,186.28,10.29,'1111122,1111122,1111122' 
COMPS,ioos:station:USF.COMPS:BGC:1,2016-04-01T17:30:00Z,26.4040,-81.8810,10.0,8.9,181.83,12.15,'1111122,1111122,1111122' 
COMPS,ioos:station:USF.COMPS:BGC:1,2016-04-01T17:36:00Z,26.4040,-81.8810,10.0,9.37,184.43,11.56,'1111122,1111122,1111122' 
COMPS,ioos:station:USF.COMPS:BGC:1,2016-04-01T17:42:00Z,26.4040,-81.8810,10.0,8.72,182.57,10.48,'1111122,1111122,1111122' 
COMPS,ioos:station:USF.COMPS:BGC:1,2016-04-01T17:48:00Z,26.4040,-81.8810,10.0,8.4,182.28,11.07,'1111122,1111122,1111122' 
COMPS,ioos:station:USF.COMPS:BGC:1,2016-04-01T17:54:00Z,26.4040,-81.8810,10.0,8.47,180.1,10.48,'1111122,1111122,1111122' 
COMPS,ioos:station:USF.COMPS:BGC:1,2016-04-01T18:00:00Z,26.4040,-81.8810,10.0,8.02,178.6,9.99,'1111122,1111122,1111122' 
COMPS,ioos:station:USF.COMPS:BGC:1,2016-04-01T18:06:00Z,26.4040,-81.8810,10.0,7.26,183.12,8.91,'1111122,1111122,1111122' 
COMPS,ioos:station:USF.COMPS:BGC:1,2016-04-01T18:12:00Z,26.4040,-81.8810,10.0,6.8,179.88,7.84,'1111122,1111122,1111122' 
COMPS,ioos:station:USF.COMPS:BGC:1,2016-04-01T18:18:00Z,26.4040,-81.8810,10.0,6.6,183.01,8.13,'1111122,1111122,1111122' 
COMPS,ioos:station:USF.COMPS:BGC:1,2016-04-01T18:24:00Z,26.4040,-81.8810,10.0,6.21,186.13,8.23,'1111122,1111122,1111122' 
COMPS,ioos:station:USF.COMPS:BGC:1,2016-04-01T18:30:00Z,26.4040,-81.8810,10.0,5.76,184.69,8.42,'1111122,1111122,1111122' 
COMPS,ioos:station:USF.COMPS:BGC:1,2016-04-01T18:36:00Z,26.4040,-81.8810,10.0,5.8,185.99,7.74,'1111122,1111122,1111122' 
COMPS,ioos:station:USF.COMPS:BGC:1,2016-04-01T18:42:00Z,26.4040,-81.8810,10.0,6.43,186.32,8.23,'1111122,1111122,1111122' 
COMPS,ioos:station:USF.COMPS:BGC:1,2016-04-01T18:48:00Z,26.4040,-81.8810,10.0,6.02,184.2,7.64,'1111122,1111122,1111122' 
COMPS,ioos:station:USF.COMPS:BGC:1,2016-04-01T18:54:00Z,26.4040,-81.8810,10.0,6.24,185.29,7.44,'1111122,1111122,1111122' 
COMPS,ioos:station:USF.COMPS:BGC:1,2016-04-01T19:00:00Z,26.4040,-81.8810,10.0,6.0,187.28,7.84,'1111122,1111122,1111122' 
COMPS,ioos:station:USF.COMPS:BGC:1,2016-04-01T19:06:00Z,26.4040,-81.8810,10.0,5.89,187.98,7.35,'1111122,1111122,1111122' 
COMPS,ioos:station:USF.COMPS:BGC:1,2016-04-01T19:12:00Z,26.4040,-81.8810,10.0,5.85,187.0,7.44,'1111122,1111122,1111122' 
COMPS,ioos:station:USF.COMPS:BGC:1,2016-04-01T19:18:00Z,26.4040,-81.8810,10.0,5.71,189.14,7.25,'1111122,1111122,1111122' 
COMPS,ioos:station:USF.COMPS:BGC:1,2016-04-01T19:24:00Z,26.4040,-81.8810,10.0,5.73,189.81,6.66,'1111122,1111122,1111122' 
COMPS,ioos:station:USF.COMPS:BGC:1,2016-04-01T19:30:00Z,26.4040,-81.8810,10.0,5.72,192.07,6.86,'1111122,1111122,1111122' 